SL-14 R/B (20262 NORAD) Tracking and Keplerian Element Data

This shows tracking and keplerian element data for the satellite.

Feedback or suggestion? Click here.




ElementValue
Catalog20262
NameSL-14 R/B
Epoch Orbit31116
Epoch Day195.89629886
Epoch Year2018
RAAN164.5761
Inclination82.5932
Eccentricity0.1238244
Argument of Perigee81.2514
Mean Anonmoly292.6487
Mean Motion12.48897396
Decay Rate5.6E-07
L11 20262U 89080C 18195.89629886 .00000056 00000-0 68879-5 0 9991
L22 20262 82.5932 164.5761 1238244 81.2514 292.6487 12.48897396311165

Live tracking and technical data element details for SL-14 R/B (NORAD 20262). SL-14 R/B can be tracked NOW for your location showing map with azimuth and elevation plus other details from your city location.

Track the satellite on the map from your city or location and see movement details for azimuth, elevation, latitude, longitude, range, height, and movement on the map or in text.







IsCatalogInMostPopularTable: catalog: 20262, numindb: 22
Update: records affected: 1



GetName: 20262 SL-14 R/B

Hit Count: updated at: Sun, 15 Jul 2018 22:54:03 GMT